EXS63T EGNX-LGRP

Flight info

Callsign EXS63T
Flight time N/A
Altitude 35000
Route SAPCO Y53 DTY M605 BENSU Q70 BIG L15 MOTOX DCT RUCAC DCT LESDO DCT ETINO DCT BEGAR DCT TRA DCT GAMSA DCT GEDSO DCT VEKEN DCT TUPUS/N0437F370 DCT MONID DCT SOLGU DCT OSLUD DCT MEDUX UM867 KOGAT DCT ERANA UL737 TSL DCT KOROS DCT MES UN139 LURUS UL995 CODIC
Aircraft B738/M-SDE2E3FGHIRWXY/LB1

Departure

Time N/A
Airport East Midlands Airport (EGNX)

Arrival

Time 2026-04-27 14:57
Airport Rhodes International Airport "Diagoras" (LGRP)
Time Latitude Longitude Altitude Speed Heading
2026-04-27 12:49 46.07847 14.31273 35163 ft 459 kts 126°
2026-04-27 12:49 46.05914 14.34927 35142 ft 459 kts 126°
2026-04-27 12:50 46.02050 14.42218 35169 ft 458 kts 126°
2026-04-27 12:50 45.98180 14.49501 35161 ft 458 kts 126°
2026-04-27 12:51 45.94289 14.56806 35203 ft 464 kts 126°
2026-04-27 12:51 45.90336 14.64208 35480 ft 469 kts 126°
2026-04-27 12:51 45.88349 14.67920 35770 ft 468 kts 126°
2026-04-27 12:52 45.86396 14.71563 36068 ft 466 kts 126°
2026-04-27 12:52 45.84398 14.75286 36322 ft 466 kts 126°
2026-04-27 12:52 45.82414 14.78978 36503 ft 467 kts 126°
2026-04-27 12:52 45.80457 14.82617 36724 ft 467 kts 126°
2026-04-27 12:53 45.76498 14.89961 37181 ft 466 kts 127°
2026-04-27 12:53 45.72512 14.97336 37158 ft 469 kts 127°
2026-04-27 12:54 45.68534 15.04677 37171 ft 465 kts 127°
2026-04-27 12:54 45.64579 15.11956 37161 ft 462 kts 127°
2026-04-27 12:55 45.60637 15.19193 37164 ft 460 kts 127°
2026-04-27 12:55 45.56704 15.26397 37168 ft 459 kts 127°
2026-04-27 12:56 45.52773 15.33577 37162 ft 460 kts 127°
2026-04-27 12:56 45.49495 15.39551 37166 ft 460 kts 127°
2026-04-27 12:57 45.45543 15.46737 37180 ft 462 kts 127°
2026-04-27 12:57 45.41574 15.53936 37172 ft 463 kts 127°
2026-04-27 12:58 45.37580 15.61160 37168 ft 465 kts 127°
2026-04-27 12:58 45.33566 15.68404 37184 ft 467 kts 127°
2026-04-27 12:59 45.29536 15.75658 37177 ft 468 kts 127°
2026-04-27 12:59 45.25491 15.82922 37163 ft 469 kts 127°
2026-04-27 13:00 45.21441 15.90168 37171 ft 469 kts 128°
2026-04-27 13:00 45.17215 15.97223 37194 ft 469 kts 130°
2026-04-27 13:01 45.12930 16.04177 37183 ft 468 kts 130°
2026-04-27 13:01 45.08672 16.11140 37171 ft 467 kts 129°
2026-04-27 13:02 45.04432 16.18103 37168 ft 466 kts 129°
2026-04-27 13:02 45.00204 16.25034 37176 ft 465 kts 129°
2026-04-27 13:03 44.95979 16.31936 37171 ft 464 kts 130°
2026-04-27 13:03 44.91751 16.38808 37161 ft 463 kts 130°
2026-04-27 13:04 44.87527 16.45654 37157 ft 462 kts 130°
2026-04-27 13:04 44.83304 16.52488 37162 ft 462 kts 130°
2026-04-27 13:05 44.79084 16.59302 37160 ft 462 kts 130°
2026-04-27 13:05 44.74857 16.66111 37153 ft 462 kts 130°
2026-04-27 13:06 44.70623 16.72915 37147 ft 462 kts 130°
2026-04-27 13:06 44.66388 16.79704 37147 ft 462 kts 130°
2026-04-27 13:07 44.62144 16.86491 37165 ft 463 kts 130°
2026-04-27 13:07 44.57895 16.93269 37144 ft 464 kts 130°
2026-04-27 13:08 44.53648 17.00029 37149 ft 464 kts 130°
2026-04-27 13:08 44.49368 17.06824 37146 ft 465 kts 131°
2026-04-27 13:09 44.45082 17.13613 37149 ft 465 kts 131°
2026-04-27 13:09 44.40788 17.20397 37144 ft 466 kts 131°
2026-04-27 13:10 44.36484 17.27182 37131 ft 466 kts 131°
2026-04-27 13:10 44.32178 17.33953 37138 ft 466 kts 131°
2026-04-27 13:11 44.27865 17.40720 37132 ft 467 kts 131°
2026-04-27 13:11 44.23546 17.47481 37128 ft 466 kts 131°
2026-04-27 13:12 44.19228 17.54223 37123 ft 466 kts 131°
2026-04-27 13:12 44.14907 17.60958 37125 ft 466 kts 132°
2026-04-27 13:13 44.10615 17.67732 37113 ft 466 kts 129°
2026-04-27 13:13 44.06607 17.74828 37114 ft 467 kts 127°
2026-04-27 13:14 44.02671 17.82003 37110 ft 466 kts 127°
2026-04-27 13:14 43.98716 17.89136 37113 ft 466 kts 128°
2026-04-27 13:15 43.94760 17.96194 37100 ft 466 kts 128°
2026-04-27 13:15 43.90771 18.03275 37098 ft 466 kts 128°
2026-04-27 13:16 43.86779 18.10344 37111 ft 466 kts 128°
2026-04-27 13:16 43.82787 18.17399 37109 ft 465 kts 128°
2026-04-27 13:17 43.78787 18.24452 37111 ft 466 kts 128°
2026-04-27 13:17 43.74777 18.31504 37097 ft 467 kts 128°
2026-04-27 13:18 43.70761 18.38552 37108 ft 467 kts 129°
2026-04-27 13:18 43.66738 18.45594 37100 ft 467 kts 129°
2026-04-27 13:19 43.62703 18.52641 37111 ft 468 kts 129°
2026-04-27 13:19 43.58659 18.59686 37106 ft 469 kts 129°
2026-04-27 13:20 43.54609 18.66725 37109 ft 469 kts 129°
2026-04-27 13:20 43.50553 18.73760 37116 ft 469 kts 129°
2026-04-27 13:21 43.46489 18.80791 37103 ft 470 kts 129°
2026-04-27 13:21 43.42411 18.87826 37108 ft 470 kts 129°
2026-04-27 13:22 43.38329 18.94855 37097 ft 470 kts 130°
2026-04-27 13:22 43.34240 19.01882 37108 ft 471 kts 130°
2026-04-27 13:23 43.30144 19.08905 37118 ft 471 kts 130°
2026-04-27 13:23 43.26041 19.15925 37108 ft 472 kts 130°
2026-04-27 13:24 43.21927 19.22944 37105 ft 472 kts 130°
2026-04-27 13:24 43.17811 19.29951 37114 ft 472 kts 130°
2026-04-27 13:25 43.13688 19.36953 37113 ft 472 kts 130°
2026-04-27 13:25 43.09564 19.43941 37116 ft 472 kts 130°
2026-04-27 13:26 43.05432 19.50924 37117 ft 472 kts 130°
2026-04-27 13:26 43.01299 19.57894 37109 ft 472 kts 130°
2026-04-27 13:27 42.97168 19.64843 37117 ft 471 kts 130°
2026-04-27 13:27 42.93035 19.71780 37110 ft 471 kts 130°
2026-04-27 13:28 42.88926 19.78660 37119 ft 471 kts 130°
2026-04-27 13:28 42.84790 19.85571 37116 ft 470 kts 131°
2026-04-27 13:29 42.80657 19.92461 37129 ft 470 kts 131°
2026-04-27 13:29 42.76516 19.99349 37127 ft 470 kts 131°
2026-04-27 13:30 42.72370 20.06221 37133 ft 470 kts 131°
2026-04-27 13:30 42.68217 20.13080 37150 ft 470 kts 131°
2026-04-27 13:31 42.64066 20.19923 37134 ft 468 kts 131°
2026-04-27 13:31 42.59923 20.26737 37141 ft 468 kts 131°
2026-04-27 13:32 42.55778 20.33542 37140 ft 468 kts 131°
2026-04-27 13:32 42.51633 20.40331 37148 ft 467 kts 131°
2026-04-27 13:33 42.47504 20.47077 37147 ft 468 kts 131°
2026-04-27 13:33 42.43347 20.53855 37147 ft 468 kts 131°
2026-04-27 13:34 42.39182 20.60631 37150 ft 469 kts 131°
2026-04-27 13:34 42.35007 20.67406 37152 ft 469 kts 131°
2026-04-27 13:35 42.30827 20.74175 37140 ft 470 kts 131°
2026-04-27 13:35 42.26636 20.80945 37158 ft 470 kts 131°
2026-04-27 13:36 42.22436 20.87717 37156 ft 471 kts 131°
2026-04-27 13:36 42.18230 20.94482 37155 ft 470 kts 131°
2026-04-27 13:37 42.14019 21.01242 37151 ft 471 kts 131°
2026-04-27 13:37 42.09698 21.07864 37141 ft 470 kts 137°
2026-04-27 13:38 42.04958 21.13891 37149 ft 469 kts 139°
2026-04-27 13:38 42.00150 21.19817 37124 ft 469 kts 139°
2026-04-27 13:39 41.95372 21.25777 37142 ft 468 kts 139°
2026-04-27 13:39 41.90628 21.31748 37143 ft 467 kts 139°
2026-04-27 13:40 41.85889 21.37719 37141 ft 467 kts 139°
2026-04-27 13:40 41.81151 21.43675 37136 ft 467 kts 139°
2026-04-27 13:41 41.76406 21.49624 37125 ft 467 kts 139°
2026-04-27 13:41 41.71656 21.55564 37132 ft 467 kts 139°
2026-04-27 13:42 41.66902 21.61499 37127 ft 467 kts 139°
2026-04-27 13:42 41.62141 21.67427 37124 ft 468 kts 139°
2026-04-27 13:43 41.57406 21.73314 37147 ft 468 kts 139°
2026-04-27 13:43 41.52632 21.79234 37133 ft 469 kts 139°
2026-04-27 13:44 41.47857 21.85145 37124 ft 468 kts 139°
2026-04-27 13:44 41.43081 21.91043 37134 ft 468 kts 139°
2026-04-27 13:45 41.39113 21.95935 37138 ft 468 kts 139°
2026-04-27 13:45 41.34332 22.01817 37132 ft 468 kts 139°
2026-04-27 13:46 41.29551 22.07688 37130 ft 468 kts 139°
2026-04-27 13:46 41.24767 22.13550 37142 ft 467 kts 139°
2026-04-27 13:47 41.19990 22.19394 37138 ft 467 kts 140°
2026-04-27 13:47 41.15190 22.25187 37142 ft 465 kts 142°
2026-04-27 13:48 41.10210 22.30617 37155 ft 463 kts 144°
2026-04-27 13:48 41.05170 22.35942 37143 ft 464 kts 144°
2026-04-27 13:49 41.00140 22.41293 37153 ft 464 kts 143°
2026-04-27 13:49 40.95112 22.46675 37138 ft 465 kts 143°
2026-04-27 13:50 40.90078 22.52065 37152 ft 466 kts 143°
2026-04-27 13:50 40.85030 22.57459 37150 ft 467 kts 143°
2026-04-27 13:51 40.79968 22.62854 37156 ft 468 kts 144°
2026-04-27 13:51 40.74899 22.68246 37158 ft 469 kts 144°
2026-04-27 13:52 40.69814 22.73644 37144 ft 469 kts 144°
2026-04-27 13:52 40.64761 22.78998 37152 ft 469 kts 144°
2026-04-27 13:53 40.57135 22.87057 37155 ft 468 kts 144°
2026-04-27 13:54 40.52057 22.92411 37159 ft 467 kts 144°
2026-04-27 13:54 40.46987 22.97747 37158 ft 467 kts 144°
2026-04-27 13:55 40.42330 23.03704 37169 ft 469 kts 134°
2026-04-27 13:55 40.38023 23.10127 37158 ft 469 kts 133°
2026-04-27 13:56 40.33715 23.16543 37159 ft 468 kts 134°
2026-04-27 13:56 40.29377 23.22900 37154 ft 468 kts 134°
2026-04-27 13:57 40.25021 23.29226 37168 ft 467 kts 134°
2026-04-27 13:57 40.20662 23.35532 37163 ft 467 kts 134°
2026-04-27 13:58 40.16305 23.41827 37156 ft 466 kts 134°
2026-04-27 13:58 40.11953 23.48103 37169 ft 466 kts 134°
2026-04-27 13:59 40.07601 23.54367 37174 ft 466 kts 134°
2026-04-27 13:59 40.03242 23.60629 37175 ft 466 kts 134°
2026-04-27 14:00 39.98879 23.66883 37171 ft 466 kts 134°
2026-04-27 14:00 39.94514 23.73127 37177 ft 466 kts 134°
2026-04-27 14:01 39.90136 23.79377 37175 ft 467 kts 134°
2026-04-27 14:01 39.85756 23.85617 37167 ft 467 kts 134°
2026-04-27 14:02 39.81369 23.91855 37173 ft 467 kts 134°
2026-04-27 14:02 39.76973 23.98093 37171 ft 468 kts 134°
2026-04-27 14:03 39.72571 24.04327 37172 ft 468 kts 134°
2026-04-27 14:03 39.68167 24.10550 37173 ft 468 kts 134°
2026-04-27 14:04 39.63759 24.16767 37167 ft 468 kts 134°
2026-04-27 14:04 39.59350 24.22973 37169 ft 467 kts 134°
2026-04-27 14:05 39.54974 24.29120 37160 ft 467 kts 134°
2026-04-27 14:05 39.50573 24.35289 37163 ft 466 kts 134°
2026-04-27 14:06 39.46174 24.41444 37152 ft 465 kts 134°
2026-04-27 14:06 39.41776 24.47584 37153 ft 465 kts 134°
2026-04-27 14:07 39.37387 24.53700 37153 ft 464 kts 134°
2026-04-27 14:07 39.32997 24.59806 37149 ft 463 kts 134°
2026-04-27 14:08 39.28607 24.65898 37143 ft 463 kts 134°
2026-04-27 14:08 39.24219 24.71977 37140 ft 462 kts 135°
2026-04-27 14:09 39.19833 24.78042 37133 ft 462 kts 135°
2026-04-27 14:09 39.15448 24.84095 37133 ft 462 kts 135°
2026-04-27 14:10 39.11058 24.90142 37131 ft 462 kts 135°
2026-04-27 14:10 39.06503 24.95950 37134 ft 461 kts 139°
2026-04-27 14:11 39.01754 25.01490 37131 ft 461 kts 140°
2026-04-27 14:11 38.96994 25.07019 37115 ft 461 kts 139°
2026-04-27 14:12 38.92255 25.12578 37128 ft 462 kts 139°
2026-04-27 14:12 38.87520 25.18152 37114 ft 462 kts 139°
2026-04-27 14:13 38.82780 25.23728 37116 ft 462 kts 139°
2026-04-27 14:13 38.78067 25.29260 37106 ft 463 kts 139°
2026-04-27 14:14 38.73313 25.34828 37102 ft 463 kts 139°
2026-04-27 14:14 38.68557 25.40388 37081 ft 463 kts 139°
2026-04-27 14:15 38.63797 25.45941 37092 ft 463 kts 139°
2026-04-27 14:15 38.59041 25.51480 37093 ft 462 kts 139°
2026-04-27 14:16 38.54283 25.57010 37089 ft 462 kts 139°
2026-04-27 14:16 38.49523 25.62533 37079 ft 462 kts 139°
2026-04-27 14:17 38.44763 25.68046 37076 ft 462 kts 139°
2026-04-27 14:17 38.40006 25.73545 37058 ft 461 kts 139°
2026-04-27 14:18 38.35251 25.79032 37066 ft 461 kts 139°
2026-04-27 14:18 38.30500 25.84506 37059 ft 461 kts 139°
2026-04-27 14:19 38.25615 25.89752 37046 ft 458 kts 149°
2026-04-27 14:19 38.19913 25.93177 37065 ft 452 kts 163°
2026-04-27 14:20 38.13961 25.95785 37044 ft 453 kts 163°
2026-04-27 14:20 38.08011 25.98416 37046 ft 453 kts 163°
2026-04-27 14:21 38.02116 26.01072 37053 ft 453 kts 163°
2026-04-27 14:21 37.96178 26.03761 37051 ft 453 kts 163°
2026-04-27 14:22 37.90233 26.06449 37050 ft 454 kts 163°
2026-04-27 14:22 37.84283 26.09132 37041 ft 454 kts 163°
2026-04-27 14:23 37.78325 26.11814 37042 ft 455 kts 163°
2026-04-27 14:23 37.72365 26.14494 37049 ft 455 kts 163°
2026-04-27 14:24 37.66402 26.17184 36686 ft 454 kts 162°
2026-04-27 14:24 37.63459 26.18513 36396 ft 446 kts 162°
2026-04-27 14:24 37.60545 26.19827 36011 ft 442 kts 162°
2026-04-27 14:24 37.57663 26.21125 35643 ft 439 kts 162°
2026-04-27 14:25 37.54799 26.22413 35255 ft 435 kts 162°
2026-04-27 14:25 37.51956 26.23691 34888 ft 432 kts 162°
2026-04-27 14:25 37.49129 26.24959 34510 ft 430 kts 162°
2026-04-27 14:25 37.46323 26.26217 34140 ft 427 kts 162°
2026-04-27 14:26 37.43533 26.27468 33732 ft 424 kts 162°
2026-04-27 14:26 37.40762 26.28709 33318 ft 422 kts 162°
2026-04-27 14:26 37.38009 26.29941 32936 ft 418 kts 162°
2026-04-27 14:26 37.35274 26.31164 32576 ft 415 kts 162°
2026-04-27 14:27 37.32569 26.32373 32229 ft 412 kts 162°
2026-04-27 14:27 37.29872 26.33577 31857 ft 409 kts 162°
2026-04-27 14:27 37.27200 26.34769 31507 ft 406 kts 162°
2026-04-27 14:27 37.24547 26.35952 31172 ft 403 kts 162°
2026-04-27 14:28 37.21913 26.37126 30819 ft 401 kts 162°
2026-04-27 14:28 37.19295 26.38290 30467 ft 398 kts 162°
2026-04-27 14:28 37.16685 26.39447 30141 ft 396 kts 162°
2026-04-27 14:28 37.14096 26.40591 29749 ft 393 kts 162°
2026-04-27 14:29 37.11527 26.41727 29387 ft 390 kts 162°
2026-04-27 14:29 37.08981 26.42852 29022 ft 386 kts 162°
2026-04-27 14:29 37.06493 26.43951 28692 ft 383 kts 162°
2026-04-27 14:29 37.03993 26.45054 28327 ft 380 kts 162°
2026-04-27 14:30 37.01507 26.46150 27979 ft 377 kts 162°
2026-04-27 14:30 36.99040 26.47238 27635 ft 374 kts 162°
2026-04-27 14:30 36.96592 26.48316 27289 ft 372 kts 162°
2026-04-27 14:30 36.94160 26.49387 26947 ft 369 kts 162°
2026-04-27 14:31 36.91748 26.50455 26615 ft 367 kts 160°
2026-04-27 14:31 36.89549 26.52048 26258 ft 367 kts 138°
2026-04-27 14:31 36.87916 26.54466 25971 ft 364 kts 119°
2026-04-27 14:31 36.86862 26.57323 25671 ft 361 kts 111°
2026-04-27 14:32 36.85922 26.60220 25328 ft 360 kts 111°
2026-04-27 14:32 36.84975 26.63104 25001 ft 358 kts 111°
2026-04-27 14:32 36.84007 26.65967 24673 ft 357 kts 112°
2026-04-27 14:32 36.83030 26.68818 24352 ft 356 kts 112°
2026-04-27 14:33 36.82056 26.71649 24037 ft 355 kts 112°
2026-04-27 14:33 36.81084 26.74476 23722 ft 354 kts 112°
2026-04-27 14:33 36.80429 26.76381 23489 ft 353 kts 112°
2026-04-27 14:33 36.79149 26.80100 23003 ft 352 kts 112°
2026-04-27 14:34 36.78511 26.81952 22773 ft 350 kts 112°
2026-04-27 14:34 36.77552 26.84736 22437 ft 349 kts 112°
2026-04-27 14:34 36.76596 26.87508 22112 ft 347 kts 112°
2026-04-27 14:34 36.75647 26.90257 21790 ft 345 kts 112°
2026-04-27 14:35 36.74701 26.92996 21474 ft 343 kts 112°
2026-04-27 14:35 36.73760 26.95719 21157 ft 341 kts 112°
2026-04-27 14:35 36.72822 26.98431 20846 ft 340 kts 112°
2026-04-27 14:35 36.71889 27.01126 20525 ft 339 kts 112°
2026-04-27 14:36 36.70957 27.03817 20207 ft 337 kts 112°
2026-04-27 14:36 36.70030 27.06490 19906 ft 336 kts 112°
2026-04-27 14:36 36.69104 27.09157 19591 ft 334 kts 112°
2026-04-27 14:36 36.68182 27.11808 19288 ft 333 kts 112°
2026-04-27 14:37 36.67261 27.14454 18981 ft 332 kts 112°
2026-04-27 14:37 36.66339 27.17089 18672 ft 331 kts 112°
2026-04-27 14:37 36.65418 27.19716 18366 ft 331 kts 112°
2026-04-27 14:37 36.64500 27.22335 18014 ft 330 kts 112°
2026-04-27 14:38 36.63582 27.24948 17668 ft 329 kts 112°
2026-04-27 14:38 36.62669 27.27548 17342 ft 327 kts 112°
2026-04-27 14:38 36.61761 27.30133 17027 ft 325 kts 112°
2026-04-27 14:38 36.60858 27.32703 16720 ft 323 kts 112°
2026-04-27 14:39 36.59961 27.35252 16408 ft 321 kts 112°
2026-04-27 14:39 36.59066 27.37794 16107 ft 320 kts 112°
2026-04-27 14:39 36.58175 27.40321 15806 ft 318 kts 112°
2026-04-27 14:39 36.57289 27.42833 15505 ft 317 kts 112°
2026-04-27 14:40 36.56418 27.45300 15207 ft 315 kts 112°
2026-04-27 14:40 36.55538 27.47791 14907 ft 314 kts 112°
2026-04-27 14:40 36.54662 27.50270 14602 ft 313 kts 113°
2026-04-27 14:40 36.53786 27.52745 14305 ft 312 kts 113°
2026-04-27 14:41 36.52915 27.55205 14007 ft 311 kts 113°
2026-04-27 14:41 36.52045 27.57662 13699 ft 310 kts 113°
2026-04-27 14:41 36.51176 27.60110 13365 ft 309 kts 113°
2026-04-27 14:41 36.50311 27.62548 13048 ft 307 kts 113°
2026-04-27 14:42 36.49450 27.64973 12743 ft 306 kts 113°
2026-04-27 14:42 36.48595 27.67380 12441 ft 304 kts 113°
2026-04-27 14:42 36.47742 27.69777 12140 ft 302 kts 113°
2026-04-27 14:42 36.46893 27.72158 11838 ft 301 kts 113°
2026-04-27 14:43 36.46229 27.74605 11534 ft 299 kts 101°
2026-04-27 14:43 36.45883 27.77140 11250 ft 297 kts 97°
2026-04-27 14:43 36.45598 27.79671 10962 ft 295 kts 97°
2026-04-27 14:43 36.45306 27.82183 10669 ft 294 kts 98°
2026-04-27 14:44 36.44993 27.84686 10379 ft 292 kts 98°
2026-04-27 14:44 36.44667 27.87171 10117 ft 290 kts 99°
2026-04-27 14:44 36.44341 27.89606 9994 ft 282 kts 99°
2026-04-27 14:44 36.44017 27.92002 9699 ft 281 kts 99°
2026-04-27 14:45 36.43693 27.94395 9414 ft 280 kts 99°
2026-04-27 14:45 36.43371 27.96767 9127 ft 278 kts 99°
2026-04-27 14:45 36.43050 27.99125 8867 ft 276 kts 99°
2026-04-27 14:45 36.42732 28.01465 8602 ft 274 kts 99°
2026-04-27 14:46 36.42415 28.03791 8334 ft 272 kts 99°
2026-04-27 14:46 36.42101 28.06100 8063 ft 271 kts 99°
2026-04-27 14:46 36.41787 28.08399 7795 ft 270 kts 99°
2026-04-27 14:46 36.41474 28.10690 7528 ft 268 kts 99°
2026-04-27 14:47 36.41163 28.12968 7261 ft 268 kts 99°
2026-04-27 14:47 36.40850 28.15246 6991 ft 267 kts 99°
2026-04-27 14:47 36.40538 28.17515 6726 ft 267 kts 99°
2026-04-27 14:47 36.40226 28.19784 6448 ft 266 kts 99°
2026-04-27 14:48 36.39914 28.22046 6170 ft 266 kts 99°
2026-04-27 14:48 36.39293 28.26551 5711 ft 258 kts 99°
2026-04-27 14:48 36.38996 28.28690 5560 ft 247 kts 99°
2026-04-27 14:49 36.38710 28.30749 5357 ft 238 kts 98°
2026-04-27 14:49 36.38446 28.32752 5117 ft 232 kts 95°
2026-04-27 14:49 36.38522 28.34703 4873 ft 224 kts 73°
2026-04-27 14:49 36.39156 28.36410 4661 ft 214 kts 52°
2026-04-27 14:50 36.40170 28.37705 4465 ft 208 kts 36°
2026-04-27 14:50 36.41410 28.38545 4227 ft 205 kts 18°
2026-04-27 14:50 36.42798 28.38873 3974 ft 202 kts 360°
2026-04-27 14:50 36.44176 28.38658 3760 ft 197 kts 342°
2026-04-27 14:51 36.45384 28.37981 3672 ft 185 kts 327°
2026-04-27 14:51 36.46328 28.36966 3557 ft 178 kts 310°
2026-04-27 14:51 36.47014 28.35689 3461 ft 177 kts 297°
2026-04-27 14:51 36.47381 28.34241 3339 ft 174 kts 282°
2026-04-27 14:52 36.47438 28.32739 3174 ft 177 kts 265°
2026-04-27 14:52 36.47154 28.31243 2992 ft 177 kts 256°
2026-04-27 14:52 36.46758 28.29808 2845 ft 173 kts 254°
2026-04-27 14:52 36.46346 28.28407 2694 ft 173 kts 254°
2026-04-27 14:53 36.45931 28.26998 2565 ft 175 kts 254°
2026-04-27 14:53 36.45512 28.25576 2446 ft 175 kts 253°
2026-04-27 14:53 36.45102 28.24185 2300 ft 167 kts 254°
2026-04-27 14:53 36.44710 28.22853 2131 ft 163 kts 255°
2026-04-27 14:54 36.44330 28.21558 1951 ft 154 kts 254°
2026-04-27 14:54 36.43974 28.20350 1746 ft 145 kts 255°
2026-04-27 14:54 36.43630 28.19171 1537 ft 145 kts 255°
2026-04-27 14:54 36.43283 28.17982 1337 ft 148 kts 254°
2026-04-27 14:55 36.42931 28.16794 1174 ft 147 kts 253°
2026-04-27 14:55 36.42576 28.15607 970 ft 147 kts 251°
2026-04-27 14:55 36.42232 28.14428 765 ft 142 kts 252°
2026-04-27 14:55 36.41899 28.13281 596 ft 140 kts 250°
2026-04-27 14:56 36.41567 28.12143 392 ft 141 kts 250°
2026-04-27 14:56 36.41231 28.10999 201 ft 141 kts 250°
2026-04-27 14:56 36.40907 28.09883 31 ft 131 kts 250°
2026-04-27 14:56 36.40635 28.08950 28 ft 94 kts 250°
2026-04-27 14:57 36.40465 28.08370 27 ft 50 kts 250°
2026-04-27 14:57 36.40347 28.08037 28 ft 30 kts 229°
2026-04-27 14:57 36.40230 28.07903 27 ft 12 kts 221°
2026-04-27 14:57 36.40162 28.07866 27 ft 11 kts 154°
2026-04-27 14:58 36.40161 28.07955 27 ft 11 kts 70°
2026-04-27 14:58 36.40188 28.08046 27 ft 12 kts 70°
2026-04-27 14:58 36.40218 28.08149 27 ft 13 kts 70°
2026-04-27 14:58 36.40249 28.08254 27 ft 13 kts 70°
2026-04-27 14:59 36.40278 28.08355 27 ft 12 kts 70°
2026-04-27 14:59 36.40310 28.08465 27 ft 16 kts 70°
2026-04-27 14:59 36.40353 28.08608 27 ft 18 kts 69°
2026-04-27 14:59 36.40395 28.08755 27 ft 18 kts 76°
2026-04-27 15:00 36.40400 28.08877 27 ft 7 kts 95°
2026-04-27 15:00 36.40396 28.08914 27 ft 4 kts 95°
2026-04-27 15:00 36.40390 28.08946 27 ft 4 kts 131°
2026-04-27 15:00 36.40364 28.08962 27 ft 4 kts 159°
2026-04-27 15:01 36.40337 28.08975 27 ft 4 kts 160°
2026-04-27 15:01 36.40325 28.08980 27 ft 0 kts 160°